Location: Unspecified
(47.6577°N, 23.5639°E)
Time: 04:23:49
(UTC+02:00)

ISS - Pass Details

Date: 14 February 2017
Orbit: 402 x 407 km, 51.6° (Epoch: 10 December)

Event Time Altitude Azimuth Distance (km) Brightness Sun altitude
Rises 18:21:05 0° 293° (WNW) 2,368 1.1 -6.3°
Reaches altitude 10° 18:23:14 10° 288° (WNW) 1,496 0.1 -6.7°
Maximum altitude 18:26:29 49° 212° (SSW) 539 -2.9 -7.2°
Drops below altitude 10° 18:29:42 10° 136° (SE) 1,473 -1.3 -7.7°
Enters shadow 18:31:41 - 131° (SE) 2,277 -0.4 -8.1°
